Wind_Speed
9 10 16 17 11 6 7 4 4 5 6 4 9 13 18 11 11 13 13 15 15 14 12 10 10 7 6 7 7 6 7 11 15 11 8 8 8 7 5 6 5 6 4 5
7 18 13 11 10 8 6 4 5 6 4 4 10 14 16 11 8 13 16 16 17 14 11 12 11 8 6 5 5 5 7 11 13 10 8 7 7 5 8 7 5 7 8 8
19 10 13 11 10 9 6 6 4 8 1 5 6 8 7 6 5 6 10 15 16 17 15 12 13 10 7 4 3 3 5 9 11 12 10 6 5 7 9 14 12 13 9 8
13 10 14 12 13 12 10 11 6 5 4 8 2 6 6 8 12 9 11 14 16 17 14 12 14 11 9 4 1 2 5 8 8 10 9 10 9 7 5 8 12 17 16 13
15 15 15 12 12 12 9 6 5 3 6 2 4 4 4 4 9 14 11 14 16 18 17 15 15 13 10 6 2 0 3 6 5 6 7 8 9 8 5 5 9 11 13 15
18 4 11 14 7 12 5 4 3 2 2 4 6 6 3 5 7 6 4 8 16 18 17 14 17 12 10 8 3 2 2 3 2 5 7 10 10 8 10 9 8 7 8 13
10 14 6 7 9 4 8 7 5 4 4 6 2 4 8 12 12 9 14 6 14 17 17 15 15 14 12 10 7 4 2 2 2 3 6 8 9 9 10 12 7 7 4 10
16 13 16 9 18 13 13 13 8 5 4 7 3 5 5 4 3 5 7 3 12 17 16 16 16 17 14 12 10 6 3 1 1 2 4 7 9 8 8 9 10 11 11 8
18 18 7 14 9 17 7 7 6 9 1 4 3 5 10 2 6 1 3 6 12 17 17 16 17 17 15 12 12 9 5 3 1 1 2 5 8 10 10 14 12 12 8 6
7 9 13 11 10 7 13 12 5 2 5 7 4 3 7 8 8 2 4 7 12 15 15 15 15 17 15 13 9 10 8 4 3 1 1 3 5 8 9 9 12 11 6 2
13 9 4 10 16 19 7 9 3 3 3 8 8 5 5 5 4 5 6 9 14 17 17 14 15 18 16 12 10 9 10 8 6 4 3 2 5 6 8 9 7 5 6 6
19 11 15 10 3 15 22 18 15 10 10 4 5 10 5 8 5 5 1 7 12 17 17 14 16 18 16 13 12 11 11 9 7 7 5 3 5 6 7 9 11 10 9 10
13 10 12 12 5 3 13 12 13 7 4 13 12 7 5 6 4 4 8 11 13 16 16 14 14 17 18 15 12 13 12 11 9 8 7 6 5 6 8 8 10 12 12 14
19 10 24 20 12 14 10 12 15 16 10 11 13 14 6 10 7 7 10 11 13 16 17 15 14 15 19 17 15 14 12 14 12 10 8 7 7 6 8 9 9 10 11 13
15 18 17 22 17 17 19 19 18 17 16 14 13 11 14 14 11 8 8 11 13 16 18 18 16 15 20 19 16 15 14 16 15 13 10 8 8 9 9 10 9 9 11 13
1 7 14 19 15 21 23 22 19 21 20 19 18 17 12 8 9 9 10 13 13 16 20 19 18 17 20 21 20 18 16 18 17 15 13 11 10 12 11 11 11 10 11 13
5 8 7 14 11 17 20 26 23 21 17 17 17 18 9 9 13 13 12 15 16 17 19 20 21 19 24 23 22 21 18 19 18 16 14 14 13 13 13 14 14 13 12 12
4 5 3 6 10 13 3 12 24 21 19 20 17 17 15 18 16 10 12 15 15 15 16 18 17 24 28 25 23 21 19 20 19 18 17 15 14 14 14 15 15 15 14 13
2 2 4 5 10 6 6 4 12 15 19 18 21 21 15 8 7 10 13 14 15 18 17 20 27 25 24 27 25 23 21 21 20 20 20 19 17 17 16 15 16 17 16 15
8 1 4 3 8 16 9 8 9 14 11 18 21 20 16 13 9 13 15 15 13 14 20 21 24 25 26 28 28 25 24 23 23 23 23 21 20 20 19 18 18 17 16 15
6 5 11 9 6 5 6 9 15 14 6 11 19 20 15 15 15 5 11 12 12 14 20 20 25 30 33 31 31 29 27 27 26 23 23 23 22 21 21 20 20 18 17 14
11 9 7 7 8 15 6 11 14 7 3 8 14 15 19 19 10 8 8 9 8 11 17 24 24 26 27 32 34 31 29 33 27 25 24 24 23 22 21 23 22 19 18 17
11 11 13 8 8 2 16 12 15 7 6 7 13 13 17 14 14 11 10 8 8 10 14 22 23 23 25 31 34 32 37 31 27 25 25 24 24 23 23 24 22 19 19 16
19 7 10 11 17 11 12 14 9 8 5 4 7 12 14 13 9 11 7 7 9 6 10 18 21 22 25 31 35 40 32 34 31 29 26 24 24 24 22 22 21 20 20 19
14 12 15 12 9 4 8 14 8 8 6 7 5 8 10 10 8 6 6 8 7 7 12 19 20 21 24 30 33 32 34 35 33 30 28 26 25 26 23 23 23 23 22 21
5 15 10 13 7 6 8 16 18 14 14 12 12 9 6 10 9 8 6 5 7 9 12 16 19 20 23 25 27 31 35 38 36 31 30 30 28 25 25 23 21 28 26 27
Wind_Direction
179 191 207 203 206 214 225 196 227 242 256 257 262 273 276 277 232 220 205 199 199 205 199 194 198 213 250 288 297 328 346 356 3 3 358 338 0 9 30 41 341 304 223 185
158 214 201 180 194 186 181 190 238 270 271 223 280 274 277 267 250 226 213 202 200 194 193 191 194 206 230 287 306 313 339 347 5 355 347 330 347 36 51 30 25 22 156 167
201 196 159 172 173 183 188 210 219 286 311 239 279 274 282 292 259 242 227 216 201 194 188 187 187 200 215 268 318 333 343 348 4 0 4 14 60 62 61 44 73 87 97 152
207 158 167 179 194 197 219 218 240 247 267 292 228 296 292 294 291 262 233 207 199 192 193 183 183 192 204 228 240 56 15 13 29 36 29 42 61 67 50 61 65 71 81 105
192 171 180 187 203 184 241 165 205 231 252 295 212 243 272 291 278 271 250 209 199 191 185 183 183 186 194 207 199 187 15 24 45 32 17 9 42 59 71 75 83 73 68 79
212 173 190 205 189 191 161 133 93 95 176 249 243 227 266 247 249 269 260 201 195 186 184 181 180 176 190 203 189 161 43 28 63 20 21 23 36 51 67 69 53 52 46 62
185 200 188 193 206 136 176 190 238 236 219 268 103 200 263 269 267 277 295 263 193 183 178 178 174 179 186 198 188 174 107 21 34 340 355 37 42 55 61 57 35 48 43 63
197 209 197 181 213 203 196 206 232 237 241 292 138 233 261 275 340 306 316 257 175 178 180 180 177 179 185 193 193 181 140 94 61 51 25 35 47 46 62 56 50 92 111 98
197 216 175 183 189 197 176 200 231 247 52 260 253 248 279 270 253 290 94 161 171 180 181 181 177 181 185 191 196 193 174 163 179 97 24 38 48 46 67 58 87 117 109 91
170 198 207 187 197 197 204 161 177 192 227 252 215 263 266 294 314 249 201 189 175 179 185 183 179 183 190 193 186 192 190 180 186 198 99 43 60 52 65 108 90 99 98 90
176 190 150 177 199 205 179 202 188 231 233 256 272 263 231 227 290 309 231 199 176 179 189 187 181 186 193 191 189 186 187 178 181 184 175 94 88 84 62 84 93 74 73 88
190 199 208 195 178 227 206 207 206 225 211 231 272 266 194 215 256 292 188 188 192 179 185 188 186 185 190 192 194 195 186 181 180 183 172 155 112 103 86 83 86 88 71 87
168 202 200 219 202 168 212 199 207 220 229 224 242 252 167 238 258 197 163 172 186 175 183 189 188 190 193 192 197 196 189 178 171 167 170 168 144 118 116 93 98 107 89 83
176 189 208 212 231 197 201 190 203 201 219 230 237 253 217 222 223 198 166 172 182 180 183 187 192 195 194 191 193 192 190 178 171 167 165 163 159 146 141 125 106 112 111 103
185 217 218 224 204 194 212 213 206 212 224 227 232 224 237 221 208 208 154 157 179 179 188 192 191 195 198 188 192 190 189 182 177 172 172 170 167 165 156 151 134 121 125 123
160 203 204 217 208 215 225 222 212 217 219 230 244 248 239 223 190 190 162 166 194 186 193 192 193 191 201 196 190 191 187 186 183 181 177 173 173 171 167 161 155 149 142 138
139 152 163 215 203 219 242 229 220 219 212 218 227 240 198 196 201 203 178 184 195 197 193 193 195 190 196 202 195 191 189 185 187 187 180 174 173 172 171 170 167 165 159 156
125 136 172 184 140 219 246 205 215 217 214 217 227 241 207 219 216 202 196 188 199 202 197 203 196 193 190 196 198 192 188 187 188 187 183 180 177 175 174 174 173 174 173 171
192 121 147 188 210 257 200 180 180 198 225 215 218 231 228 200 173 230 214 199 196 199 195 197 196 197 184 188 193 191 186 190 191 187 184 184 181 181 177 176 179 180 180 182
155 218 206 152 219 233 207 185 210 189 229 208 212 221 204 170 214 239 192 200 200 199 197 189 188 190 185 186 187 187 191 190 194 190 187 186 184 185 185 183 184 187 189 192
172 179 209 210 247 269 243 173 157 197 197 200 201 213 188 194 221 217 162 183 202 192 189 187 179 186 193 180 181 189 193 198 197 191 185 184 186 187 188 186 189 189 189 189
198 182 205 202 224 245 161 155 188 196 190 204 198 188 195 211 220 195 170 176 173 182 181 187 185 190 185 183 181 187 196 201 195 190 185 184 187 187 188 188 188 190 191 192
232 219 222 211 229 88 182 178 216 199 200 193 197 192 203 219 226 223 213 195 196 183 183 186 197 187 187 187 188 187 201 195 192 192 188 186 187 189 190 188 189 189 193 194
233 237 239 223 237 229 202 229 251 219 213 188 201 181 190 207 218 230 219 209 224 197 181 187 195 190 190 192 193 201 190 192 190 193 192 188 188 190 193 195 195 194 196 199
221 208 227 241 248 248 239 224 232 207 183 179 189 198 195 191 204 223 212 202 200 187 177 187 196 200 203 195 199 197 191 188 189 192 193 192 193 195 197 200 200 203 209 205
224 218 222 232 217 229 219 210 204 199 202 193 173 169 181 189 193 182 206 205 210 201 193 198 201 208 205 201 201 199 193 189 187 191 195 196 195 198 201 202 207 219 219 223
Height
757 766 769 767 772 770 777 785 790 786 776 782 780 779 769 765 769 771 774 777 781 784 787 791 794 796 795 794 793 792 789 786 784 781 779 776 776 774 772 769 767 765 765 764
762 761 755 759 768 775 780 785 788 781 779 782 777 777 764 762 760 760 764 770 775 781 784 788 792 793 794 792 792 791 789 786 784 780 778 777 776 775 772 769 766 762 763 764
746 745 754 760 771 777 778 782 784 784 783 780 782 778 765 751 757 758 759 761 768 773 778 783 789 791 791 791 791 790 788 786 784 781 780 778 776 776 774 771 768 765 767 765
742 746 753 761 765 765 780 768 772 780 788 791 780 792 770 754 755 754 753 759 763 769 775 780 785 788 789 790 790 789 788 786 785 783 782 780 778 777 776 775 773 771 770 769
738 747 752 760 758 759 765 764 771 776 782 787 785 793 764 764 755 742 737 750 757 762 768 775 781 784 787 788 789 789 788 786 786 785 783 782 782 780 778 777 776 776 774 774
725 731 736 741 746 750 752 768 779 785 786 794 774 779 768 755 746 737 735 745 752 758 765 772 778 782 785 787 788 789 788 787 786 786 786 785 783 782 780 779 778 778 777 777
734 734 733 732 749 755 757 770 786 792 790 788 782 784 761 739 734 741 738 740 749 755 762 768 774 779 783 785 787 788 788 788 787 787 787 787 786 784 782 779 779 779 778 780
740 753 735 731 737 750 757 759 776 799 791 777 784 777 754 736 740 739 738 737 746 754 759 765 770 776 779 783 785 787 788 789 788 788 788 789 788 787 785 783 782 782 783 785
730 733 722 723 726 734 759 764 751 766 782 781 767 759 742 738 734 739 741 746 749 752 756 762 767 773 777 781 783 786 787 789 789 788 790 791 790 789 788 787 786 785 788 789
716 736 720 721 723 732 739 742 766 769 786 789 768 770 754 738 733 735 744 745 748 751 757 761 765 771 776 779 782 785 787 789 789 789 790 792 792 791 791 791 792 792 792 791
702 711 734 726 728 730 744 747 753 752 759 770 777 761 735 735 731 730 732 738 742 748 753 759 763 769 774 777 781 784 786 788 789 790 791 793 793 793 793 794 794 793 793 792
693 707 724 726 720 712 716 729 735 749 762 758 759 754 728 729 726 727 731 737 741 742 749 755 761 767 772 776 779 782 784 787 789 790 792 793 794 795 795 796 797 796 795 796
694 703 725 729 731 726 724 725 723 733 741 748 755 747 729 729 726 725 729 732 740 740 747 753 758 763 768 772 776 779 782 785 788 790 792 793 795 796 797 798 799 801 800 799
679 693 695 707 708 713 725 726 724 727 737 738 739 732 730 727 723 724 725 729 733 736 742 748 754 759 764 769 773 777 780 783 786 789 792 793 795 797 798 800 801 803 804 804
679 691 691 687 693 701 704 711 716 725 721 732 725 730 717 713 716 714 715 725 732 733 737 740 748 754 760 764 769 773 777 781 784 787 791 793 795 796 798 801 803 805 806 807
687 688 691 694 693 694 701 700 703 708 709 714 712 715 702 704 708 714 715 723 729 726 728 734 741 748 755 760 764 769 774 778 782 785 788 792 794 796 798 800 803 805 808 809
685 688 696 701 696 698 706 691 695 700 700 705 717 704 701 709 707 702 709 715 717 717 720 725 730 739 747 754 761 765 770 775 779 783 786 789 793 795 797 800 802 805 808 810
687 688 691 695 701 716 679 667 677 690 691 693 692 689 695 691 691 693 697 704 708 712 714 719 725 732 737 747 756 762 767 771 776 780 783 787 790 794 796 799 801 804 807 810
688 689 696 700 701 680 678 683 680 690 689 684 687 682 685 690 694 694 689 693 695 701 702 708 715 726 734 740 749 758 763 768 772 776 780 784 787 791 794 797 800 803 806 810
689 689 689 708 699 691 664 669 669 670 690 668 675 674 682 689 698 680 681 685 690 696 699 702 710 721 728 734 742 750 757 762 767 771 775 780 784 788 791 794 798 801 805 808
690 694 696 698 698 679 666 659 664 692 679 658 665 665 678 684 671 667 674 681 685 688 692 699 706 709 715 725 734 742 750 754 760 766 771 776 780 784 788 792 795 799 803 806
675 686 687 692 696 690 661 668 669 658 655 655 658 661 670 663 665 671 672 676 680 684 689 694 700 704 711 719 726 734 742 744 754 761 766 771 776 781 785 788 793 797 800 803
679 664 666 667 658 654 653 647 648 648 647 654 653 655 658 661 665 668 671 674 677 680 684 689 695 700 707 713 719 726 728 741 748 756 760 765 771 777 781 784 788 793 797 800
664 663 664 661 647 651 652 649 647 648 648 651 649 651 655 659 663 667 671 673 676 676 681 686 692 695 700 705 711 713 726 735 742 749 755 761 766 771 777 781 785 789 792 795
654 659 657 654 646 652 648 645 646 648 648 650 651 650 651 656 661 664 668 670 672 674 678 684 686 688 693 698 704 713 719 728 735 742 748 754 760 765 770 775 778 782 785 789
654 650 652 647 640 641 637 636 639 644 644 645 646 650 652 656 659 661 665 667 670 671 673 677 680 686 689 696 701 708 712 718 726 735 741 746 751 758 765 770 774 777 781 784